Location: Earls Croome
(52.0667°N, 2.2000°W)
Time: 14:22:28
(UTC+00:00)

COSMOS 2455 - Pass Details

Date: 21 February 2020
Orbit: 901 x 909 km, 67.2° (Epoch: 07 April)

Event Time Altitude Azimuth Distance (km) Brightness Sun altitude
Exits shadow 01:38:57 15° 23° (NNE) 2,248 5.4 -45.9°
Drops below altitude 10° 01:40:17 10° 32° (NNE) 2,601 5.8 -45.8°
Sets 01:43:19 0° 46° (NE) 3,545 6.6 -45.6°
